Weather History for KDRO - April, 2013

Change the Weather History Date:

Friday, April 12, 2013

  Actual Average Record
Temperature  
Mean Temperature 44 °F 44 °F  
Max Temperature 62 °F 60 °F - ()
Min Temperature 25 °F 28 °F - ()
Degree Days  
Heating Degree Days 21 21  
Month to date heating degree days 260 267  
Since 1 July heating degree days 6399 6296  
Cooling Degree Days 0 0  
Month to date cooling degree days 0 0  
Year to date cooling degree days 0 0  
Moisture  
Dew Point 23 °F    
Average Humidity 55    
Maximum Humidity 88    
Minimum Humidity 21    
Precipitation  
Precipitation 0.00 in 0.05 in - ()
Month to date precipitation 0.67 0.47  
Year to date precipitation 3.28 4.00  
Sea Level Pressure  
Sea Level Pressure 29.90 in    
Wind  
Wind Speed 6 mph (West)    
Max Wind Speed 20 mph    
Max Gust Speed 26 mph    
Visibility 10 miles    
Events      
T = Trace of Precipitation, MM = Missing Value Source: NWS Daily Summary

Daily Weather History Graph

Daily Weather History Graph

Search for Another Location

Airport or City:

Trip Planner

Search our weather history database for the weather conditions in past years. The results will help you decide how hot, cold, wet, or windy it might be!

Date:

Astronomy

Apr. 12, 2013 Rise Set
Actual Time 6:40 AM MDT 7:43 PM MDT
Civil Twilight 6:13 AM MDT 8:10 PM MDT
Nautical Twilight 5:41 AM MDT 8:42 PM MDT
Astronomical Twilight 5:09 AM MDT 9:15 PM MDT
Moon 7:55 AM MDT (4/12) 10:13 PM MDT (4/12)
Length of Visible Light 13h 56m
Length of Day
13h 03m
Waxing Crescent, 5% of the Moon is Illuminated
Apr 12
Waxing Crescent
Apr 18
First Quarter
Apr 25
Full
May 2
Last Quarter
May 9
New

Hourly Weather History & Observations

Time (MDT) Temp. Windchill Dew Point Humidity Pressure Visibility Wind Dir Wind Speed Gust Speed Precip Events Conditions
12:53 AM 35.1 °F - 25.0 °F 67% 29.90 in 10.0 mi Calm Calm - N/A   Clear
1:53 AM 30.0 °F 26.5 °F 25.0 °F 82% 29.90 in 10.0 mi SE 3.5 mph - N/A   Clear
2:53 AM 28.9 °F 21.9 °F 25.0 °F 85% 29.90 in 10.0 mi NE 6.9 mph - N/A   Clear
3:53 AM 28.9 °F 25.2 °F 24.1 °F 82% 29.90 in 10.0 mi ENE 3.5 mph - N/A   Clear
4:53 AM 28.0 °F - 23.0 °F 81% 29.90 in 10.0 mi Calm Calm - N/A   Clear
5:53 AM 25.0 °F 20.7 °F 21.9 °F 88% 29.93 in 10.0 mi East 3.5 mph - N/A   Clear
6:53 AM 26.1 °F - 21.9 °F 84% 29.95 in 10.0 mi Calm Calm - N/A   Clear
7:53 AM 32.0 °F - 25.0 °F 75% 29.96 in 10.0 mi Calm Calm - N/A   Clear
8:53 AM 37.9 °F - 27.0 °F 65% 29.96 in 10.0 mi Calm Calm - N/A   Clear
9:53 AM 43.0 °F - 27.0 °F 53% 29.95 in 10.0 mi Calm Calm - N/A   Clear
10:53 AM 48.0 °F - 30.0 °F 50% 29.94 in 10.0 mi Calm Calm - N/A   Clear
11:53 AM 51.1 °F - 27.0 °F 39% 29.92 in 10.0 mi Variable 6.9 mph - N/A   Clear
12:53 PM 53.1 °F - 24.1 °F 32% 29.90 in 10.0 mi SE 4.6 mph - N/A   Clear
1:53 PM 57.0 °F - 21.9 °F 26% 29.88 in 10.0 mi SW 10.4 mph 20.7 mph N/A   Scattered Clouds
2:53 PM 59.0 °F - 21.9 °F 24% 29.86 in 10.0 mi Variable 4.6 mph 20.7 mph N/A   Overcast
3:53 PM 60.1 °F - 21.0 °F 22% 29.82 in 10.0 mi West 13.8 mph 21.9 mph N/A   Clear
4:53 PM 61.0 °F - 21.0 °F 21% 29.81 in 10.0 mi West 13.8 mph - N/A   Scattered Clouds
5:53 PM 57.9 °F - 18.0 °F 21% 29.83 in 10.0 mi WSW 9.2 mph - N/A   Partly Cloudy
6:53 PM 57.0 °F - 19.0 °F 23% 29.84 in 10.0 mi WSW 15.0 mph - N/A   Clear
7:53 PM 53.1 °F - 19.0 °F 26% 29.85 in 10.0 mi West 9.2 mph - N/A   Scattered Clouds
8:53 PM 48.0 °F - 21.0 °F 34% 29.88 in 10.0 mi WSW 5.8 mph - N/A   Clear
9:53 PM 46.9 °F - 19.9 °F 34% 29.89 in 10.0 mi WNW 3.5 mph - N/A   Clear
10:53 PM 42.1 °F 38.4 °F 21.0 °F 43% 29.90 in 10.0 mi NW 5.8 mph - N/A   Clear
11:53 PM 37.0 °F 30.4 °F 23.0 °F 57% 29.92 in 10.0 mi North 9.2 mph - N/A   Clear